This is the latest recevied weather packets stored in our database for station/object K6POO-1. If no packets are shown the sender has not sent any weather packets the latest 10 day(s).
| Time | Temp. | Humidity | Pressure | Rain* | Wind** | Luminosity | Snow |
|---|---|---|---|---|---|---|---|
| 1788073258 | 15° C | 78% | 1013.6 hPa | 0 mm | - | 0 W/m² | - |
| 1788072957 | 15° C | 78% | 1013.8 hPa | 0 mm | - | 0 W/m² | - |
| 1788072655 | 15.56° C | 77% | 1014 hPa | 0 mm | - | 0 W/m² | - |
| 1788072350 | 15° C | 77% | 1013.7 hPa | 0 mm | - | 0 W/m² | - |
| 1788072045 | 15.56° C | 76% | 1013.7 hPa | 0 mm | - | 0 W/m² | - |
| 1788071745 | 15.56° C | 77% | 1013.8 hPa | 0 mm | - | 0 W/m² | - |
| 1788071445 | 15.56° C | 77% | 1013.4 hPa | 0 mm | - | 0 W/m² | - |
| 1788071139 | 15.56° C | 76% | 1013.5 hPa | 0 mm | - | 0 W/m² | - |
| 1788070834 | 15.56° C | 76% | 1013.4 hPa | 0 mm | - | 0 W/m² | - |
| 1788070534 | 16.11° C | 76% | 1013.5 hPa | 0 mm | - | 0 W/m² | - |
| 1788070230 | 15.56° C | 75% | 1013.6 hPa | 0 mm | - | 0 W/m² | - |
| 1788069926 | 15.56° C | 75% | 1013.6 hPa | 0 mm | - | 0 W/m² | - |
| 1788069623 | 15.56° C | 74% | 1013.7 hPa | 0 mm | - | 0 W/m² | - |
| 1788069317 | 16.11° C | 74% | 1013.8 hPa | 0 mm | - | 0 W/m² | - |
| 1788069014 | 16.11° C | 73% | 1013.6 hPa | 0 mm | - | 0 W/m² | - |
| 1788068709 | 16.11° C | 73% | 1013.7 hPa | 0 mm | - | 0 W/m² | - |
| 1788068404 | 16.11° C | 72% | 1013.6 hPa | 0 mm | - | 0 W/m² | - |
| 1788068100 | 16.11° C | 73% | 1013.4 hPa | 0 mm | - | 0 W/m² | - |
| 1788067798 | 16.11° C | 73% | 1013.6 hPa | 0 mm | - | 0 W/m² | - |
| 1788067494 | 16.11° C | 73% | 1013.4 hPa | 0 mm | - | 0 W/m² | - |
| 1788067189 | 16.67° C | 73% | 1013.8 hPa | 0 mm | - | 0 W/m² | - |
| 1788066884 | 16.11° C | 74% | 1013.7 hPa | 0 mm | - | 0 W/m² | - |
| 1788066584 | 16.11° C | 75% | 1013.7 hPa | 0 mm | - | 0 W/m² | - |
| 1788066279 | 16.11° C | 75% | 1013.8 hPa | 0 mm | - | 0 W/m² | - |
| 1788065977 | 16.11° C | 75% | 1013.7 hPa | 0 mm | - | 0 W/m² | - |
* Rain latest hour (hover to see other rain measurements)
** Current wind speed in m/s (hover to see current wind gust speed)